Change the Weather History Date:

Tuesday, January 21, 2014

  Actual Average Record
Temperature  
Mean Temperature 70 °F -  
Max Temperature 76 °F 83 °F 91 °F (2011)
Min Temperature 65 °F 56 °F 44 °F (1997)
Cooling Degree Days 6    
Growing Degree Days 20 (Base 50)    
Moisture  
Dew Point 63 °F    
Average Humidity 81    
Maximum Humidity 100    
Minimum Humidity 51    
Precipitation  
Precipitation 0.12 in 0.00 in - ()
Sea Level Pressure  
Sea Level Pressure 30.00 in    
Wind  
Wind Speed 3 mph ()    
Max Wind Speed 7 mph    
Max Gust Speed -    
Visibility 1.6 miles    
Events Fog , Rain , Thunderstorm    
Averages and records for this station are not official NWS values.
T = Trace of Precipitation, MM = Missing Value Source: Averaged Metar Reports

Daily Weather History Graph

Daily Weather History Graph

Search for Another Location

Airport or City:

Trip Planner

Search our weather history database for the weather conditions in past years. The results will help you decide how hot, cold, wet, or windy it might be!

Date:

Astronomy

Jan. 21, 2014 Rise Set
Actual Time 7:22 AM IST 6:19 PM IST
Civil Twilight 6:58 AM IST 6:43 PM IST
Nautical Twilight 6:30 AM IST 7:10 PM IST
Astronomical Twilight 6:03 AM IST 7:37 PM IST
Moon 10:45 PM IST (1/21) 10:14 AM IST (1/21)
Length of Visible Light 11h 44m
Length of Day
10h 56m
Waning Gibbous, 78% of the Moon is Illuminated
Jan 21
Waning Gibbous
Jan 24
Last Quarter
Jan 31
New
Feb 7
First Quarter
Feb 15
Full

Hourly Weather History & Observations

Time (IST) Temp. Dew Point Humidity Pressure Visibility Wind Dir Wind Speed Gust Speed Precip Events Conditions
12:10 AM 69.8 °F 59.0 °F 68% 30.01 in 2.2 mi ENE 2.3 mph - N/A   Haze
12:40 AM 69.8 °F 59.0 °F 68% 29.98 in 2.2 mi ESE 2.3 mph - N/A   Haze
1:10 AM 69.8 °F 59.0 °F 68% 29.98 in 2.2 mi East 3.5 mph - N/A   Haze
2:10 AM 68.0 °F 60.8 °F 78% 29.95 in 2.2 mi ENE 3.5 mph - N/A   Haze
2:30 AM 68 °F 63 °F 78% 29.98 in 1 mi SE 2.3 mph - - Rain , Thunderstorm Thunderstorms and Rain
4:10 AM 66.2 °F 64.4 °F 94% 29.98 in 1.6 mi SSE 5.8 mph - N/A Rain Light Rain
4:40 AM 64.4 °F 64.4 °F 100% 29.98 in 1.6 mi SSE 4.6 mph - N/A Fog Fog
5:10 AM 64.4 °F 64.4 °F 100% 29.98 in 1.2 mi SE 3.5 mph - N/A Fog Fog
5:30 AM 66 °F 64 °F 90% 29.98 in 1 mi Calm Calm - - Rain Light Rain
5:40 AM 64.4 °F 64.4 °F 100% 29.98 in 1.2 mi SE 2.3 mph - N/A Fog Fog
6:10 AM 64.4 °F 64.4 °F 100% 30.01 in 1.1 mi NE 3.5 mph - N/A Fog Fog
6:40 AM 64.4 °F 64.4 °F 100% 30.01 in 1.1 mi ENE 2.3 mph - N/A Fog Fog
8:30 AM 66 °F 64 °F 93% 30.05 in 1 mi Calm Calm - - Rain Light Drizzle
11:30 AM 71 °F 65 °F 78% 30.08 in 1 mi SE 3.5 mph - -   Haze
12:40 PM 71.6 °F 62.6 °F 73% 30.04 in 2.5 mi SE 6.9 mph - N/A   Haze
1:40 PM 73.4 °F 62.6 °F 69% 30.01 in 2.2 mi East 4.6 mph - N/A   Haze
2:10 PM 73.4 °F 62.6 °F 69% 29.98 in 2.2 mi SE 3.5 mph - N/A   Haze
2:30 PM 76 °F 61 °F 51% 29.99 in 1 mi South 4.6 mph - -   Haze
2:40 PM 75.2 °F 62.6 °F 65% 29.98 in 2.5 mi SSE 5.8 mph - N/A   Haze
3:10 PM 75.2 °F 62.6 °F 65% 29.98 in 2.5 mi SSE 4.6 mph - N/A   Haze
3:40 PM 73.4 °F 64.4 °F 73% 29.95 in 2.2 mi ESE 4.6 mph - N/A   Haze
4:40 PM 73.4 °F 62.6 °F 69% 29.98 in - East 4.6 mph - N/A   Haze
5:10 PM - 62.6 °F N/A% 29.98 in - ESE 4.6 mph - N/A   Haze
5:30 PM 72 °F 62 °F 64% 29.98 in 1 mi SE 3.5 mph - -   Haze
5:40 PM 71.6 °F 62.6 °F 73% 29.98 in - ESE 4.6 mph - N/A   Haze
6:10 PM 69.8 °F 62.6 °F 78% 29.98 in - ESE 3.5 mph - N/A   Haze
6:40 PM 69.8 °F 62.6 °F 78% 29.98 in - East 3.5 mph - N/A   Haze
7:10 PM 68.0 °F 62.6 °F 83% 30.01 in - ESE 2.3 mph - N/A   Haze
7:40 PM 68.0 °F 62.6 °F 83% 30.01 in - East 2.3 mph - N/A   Haze
8:10 PM 68.0 °F 64.4 °F 88% 30.04 in - Variable 2.3 mph - N/A   Haze
8:30 PM 69 °F 64 °F 77% 30.03 in 1 mi SE 3.5 mph - -   Haze
8:40 PM 68.0 °F 64.4 °F 88% 30.04 in - Variable 2.3 mph - N/A   Haze
9:10 PM 68.0 °F 64.4 °F 88% 30.04 in - East 3.5 mph - N/A   Haze
9:40 PM 68.0 °F 64.4 °F 88% 30.04 in - East 4.6 mph - N/A   Haze
10:10 PM 68.0 °F 64.4 °F 88% 30.04 in - East 3.5 mph - N/A   Haze
10:40 PM 66.2 °F 64.4 °F 94% 30.04 in - ENE 2.3 mph - N/A   Light Drizzle
11:10 PM 66.2 °F 64.4 °F 94% 30.04 in - ENE 4.6 mph - N/A   Light Drizzle
11:30 PM 67 °F 63 °F 84% 30.03 in 1 mi Calm Calm - -   Haze
11:40 PM 66.2 °F 64.4 °F 94% 30.01 in - ENE 3.5 mph - N/A   Light Drizzle